Saginaw, Michigan, United States (48601)
Lat: 43.42N, Lon: 83.95W
Wx Zone: MIZ053
Local Info
Past Weather Observations for Today

NOTE: This archive is for the closest National Weather Service station to Saginaw. Information may differ from the station used for current weather conditions.

Click here for Long-term Archive

Time Weather Temperature Dewpoint Humidity Pressure Winds Precip Visibility
07:54
Clear
66°F / 19°C 66°F / 19°C 100% 30.12 in
(1020 mb)
SW 4.6 mph
(SW 7 kph)
- 7SM
07:34
Clear
64°F / 18°C 64°F / 18°C 100% 30.09 in
(1019 mb)
SW 4.6 mph
(SW 7 kph)
- 7SM
07:14
Clear
63°F / 17°C 63°F / 17°C 100% 30.09 in
(1019 mb)
SW 3.5 mph
(SW 6 kph)
- 7SM
06:54
Clear
Fog And Mist
63°F / 17°C 63°F / 17°C 100% 30.09 in
(1019 mb)
SSE 4.6 mph
(SSE 7 kph)
- 5SM
06:34
Clear
Fog And Mist
61°F / 16°C 61°F / 16°C 100% 30.09 in
(1019 mb)
S 3.5 mph
(S 6 kph)
- 5SM
06:14
Clear
Fog And Mist
61°F / 16°C 61°F / 16°C 100% 30.09 in
(1019 mb)
Calm - 5SM
05:54
Clear
Fog And Mist
59°F / 15°C 59°F / 15°C 100% 30.09 in
(1019 mb)
SSE 4.6 mph
(SSE 7 kph)
- 5SM
05:34
Clear
Fog And Mist
59°F / 15°C 59°F / 15°C 100% 30.09 in
(1019 mb)
Calm - 4SM
05:14
Clear
Fog And Mist
61°F / 16°C 61°F / 16°C 100% 30.06 in
(1018 mb)
SW 3.5 mph
(SW 6 kph)
- 5SM
04:54
Clear
59°F / 15°C 59°F / 15°C 100% 30.06 in
(1018 mb)
SW 4.6 mph
(SW 7 kph)
- 7SM
04:34
Clear
61°F / 16°C 61°F / 16°C 100% 30.06 in
(1018 mb)
SW 3.5 mph
(SW 6 kph)
- 7SM
04:14
Clear
61°F / 16°C 61°F / 16°C 100% 30.06 in
(1018 mb)
Calm - 7SM
03:54
Clear
61°F / 16°C 61°F / 16°C 100% 30.06 in
(1018 mb)
SSW 3.5 mph
(SSW 6 kph)
- 7SM
03:34
Clear
61°F / 16°C 61°F / 16°C 100% 30.06 in
(1018 mb)
Calm - 7SM
03:14
Clear
61°F / 16°C 61°F / 16°C 100% 30.06 in
(1018 mb)
SSW 3.5 mph
(SSW 6 kph)
- 7SM
02:54
Partly Cloudy
63°F / 17°C 63°F / 17°C 100% 30.06 in
(1018 mb)
SSW 4.6 mph
(SSW 7 kph)
- 10SM
02:34
Mostly Cloudy
63°F / 17°C 63°F / 17°C 100% 30.06 in
(1018 mb)
W 3.5 mph
(W 6 kph)
- 10SM
02:14
Partly Cloudy
63°F / 17°C 61°F / 16°C 94% 30.06 in
(1018 mb)
Calm - 10SM
01:54
Partly Cloudy
64°F / 18°C 61°F / 16°C 88% 30.06 in
(1018 mb)
SW 4.6 mph
(SW 7 kph)
- 10SM
01:34
Mostly Cloudy
64°F / 18°C 61°F / 16°C 88% 30.04 in
(1017 mb)
SW 5.8 mph
(SW 9 kph)
- 10SM
01:15
Partly Cloudy
66°F / 19°C 61°F / 16°C 83% 30.04 in
(1017 mb)
SSE 5.8 mph
(SSE 9 kph)
- 10SM
00:54
Partly Cloudy
68°F / 20°C 61°F / 16°C 78% 30.04 in
(1017 mb)
SSW 4.6 mph
(SSW 7 kph)
- 10SM
00:34
Partly Cloudy
68°F / 20°C 61°F / 16°C 78% 30.04 in
(1017 mb)
SSW 4.6 mph
(SSW 7 kph)
- 10SM
00:15
Partly Cloudy
68°F / 20°C 61°F / 16°C 78% 30.04 in
(1017 mb)
SSW 6.9 mph
(SSW 11 kph)
- 10SM
Time Weather Temperature Dewpoint Humidity Pressure Winds Precip Visibility


Weather for websites

WeatherForYou.com, LLC is not responsible for any damages or problems caused by this service. Current weather conditions are obtained from the closest station including government and personal stations which may have varying degrees of accuracy. Weather forecasts are derived from the NOAA NDFD. Like all things, this site belongs to Jesus Christ... He just trusts us to maintain it. If you have any questions or comments email webmaster@weatherforyou.com

Copyright © 2015, WeatherForYou.com LLC. All rights reserved.